| time (UTC) | temp F | wind direction | speed MPH | gust MPH | rain 1hr in | rain 24hr in | rain mn in | humidity % | barometer mb |
| 20260906045820 | 60 | 112 | 0.0 | 0.0 | 0.00 | 0.00 | 0.00 | 96 | 1012.4 |
| 20260906045315 | 60 | 123 | 0.0 | 0.0 | 0.00 | 0.00 | 0.00 | 96 | 1012.3 |
| 20260906045202 | 61 | 25 | 0.0 | 0.0 | 0.00 | 0.13 | 0.00 | 93 | 1011.7 |
| 20260906044811 | 60 | 119 | 0.0 | 0.0 | 0.00 | 0.00 | 0.00 | 96 | 1012.3 |
| 20260906044310 | 60 | 97 | 0.0 | 0.0 | 0.00 | 0.00 | 0.00 | 96 | 1012.2 |
| 20260906044202 | 61 | 25 | 0.0 | 0.0 | 0.00 | 0.13 | 0.00 | 93 | 1011.6 |
| 20260906043806 | 61 | 115 | 0.0 | 0.0 | 0.00 | 0.00 | 0.00 | 96 | 1012.4 |
| 20260906043302 | 60 | 0 | 0.0 | 2.0 | 0.00 | 0.00 | 0.00 | 96 | 1012.2 |
| 20260906043202 | 61 | 327 | 0.0 | 0.0 | 0.00 | 0.13 | 0.00 | 93 | 1011.6 |
| 20260906042757 | 61 | 61 | 0.0 | 1.0 | 0.00 | 0.00 | 0.00 | 96 | 1012.3 |
| 20260906042256 | 61 | 302 | 0.0 | 0.0 | 0.00 | 0.00 | 0.00 | 96 | 1012.2 |
| 20260906042202 | 61 | 339 | 0.0 | 0.0 | 0.00 | 0.13 | 0.00 | 93 | 1011.7 |
| 20260906041752 | 61 | 302 | 0.0 | 1.0 | 0.00 | 0.00 | 0.00 | 96 | 1012.2 |
| 20260906041247 | 61 | 257 | 0.0 | 1.0 | 0.00 | 0.00 | 0.00 | 96 | 1012.4 |
| 20260906041202 | 61 | 292 | 0.0 | 0.0 | 0.00 | 0.13 | 0.00 | 92 | 1011.7 |
| 20260906040742 | 61 | 257 | 0.0 | 0.0 | 0.00 | 0.00 | 0.00 | 96 | 1012.4 |
| 20260906040237 | 61 | 257 | 0.0 | 0.0 | 0.00 | 0.00 | 0.00 | 96 | 1012.2 |
| 20260906040202 | 62 | 292 | 0.0 | 0.0 | 0.00 | 0.13 | 0.00 | 92 | 1011.6 |
| 20260906035732 | 61 | 257 | 0.0 | 0.0 | 0.00 | 0.17 | 0.17 | 96 | 1012.2 |
| 20260906035228 | 61 | 257 | 0.0 | 0.0 | 0.00 | 0.17 | 0.17 | 96 | 1012.1 |
| 20260906035202 | 62 | 292 | 0.0 | 0.0 | 0.00 | 0.13 | 0.13 | 93 | 1011.5 |
| 20260906034727 | 61 | 257 | 0.0 | 0.0 | 0.00 | 0.17 | 0.17 | 96 | 1012.2 |
| 20260906034217 | 61 | 257 | 0.0 | 0.0 | 0.00 | 0.17 | 0.17 | 96 | 1012.3 |
| 20260906034202 | 62 | 292 | 0.0 | 0.0 | 0.00 | 0.13 | 0.13 | 92 | 1011.5 |
| 20260906033712 | 61 | 257 | 0.0 | 0.0 | 0.00 | 0.17 | 0.17 | 96 | 1012.1 |
| 20260906033207 | 61 | 257 | 0.0 | 0.0 | 0.00 | 0.17 | 0.17 | 96 | 1012.0 |
| 20260906033202 | 62 | 292 | 0.0 | 0.0 | 0.00 | 0.13 | 0.13 | 92 | 1011.5 |
| 20260906032704 | 61 | 257 | 0.0 | 0.0 | 0.00 | 0.17 | 0.17 | 96 | 1012.1 |
| 20260906032203 | 61 | 257 | 0.0 | 0.0 | 0.00 | 0.17 | 0.17 | 96 | 1012.2 |
| 20260906031659 | 61 | 257 | 0.0 | 0.0 | 0.00 | 0.17 | 0.17 | 96 | 1012.3 |
| 20260906031224 | 62 | 292 | 0.0 | 0.0 | 0.00 | 0.13 | 0.13 | 92 | 1011.4 |
| 20260906031154 | 61 | 257 | 0.0 | 0.0 | 0.00 | 0.17 | 0.17 | 96 | 1011.9 |
| 20260906030654 | 61 | 257 | 0.0 | 0.0 | 0.00 | 0.17 | 0.17 | 96 | 1011.8 |
| 20260906030202 | 62 | 292 | 0.0 | 0.0 | 0.00 | 0.13 | 0.13 | 92 | 1011.3 |
| 20260906030149 | 61 | 257 | 0.0 | 0.0 | 0.00 | 0.17 | 0.17 | 95 | 1012.1 |
| 20260906025648 | 61 | 257 | 0.0 | 0.0 | 0.00 | 0.17 | 0.17 | 95 | 1012.2 |
| 20260906025202 | 62 | 292 | 0.0 | 0.0 | 0.01 | 0.13 | 0.13 | 92 | 1011.3 |
| 20260906025148 | 61 | 257 | 0.0 | 0.0 | 0.00 | 0.17 | 0.17 | 95 | 1012.1 |
| 20260906024642 | 61 | 257 | 0.0 | 0.0 | 0.00 | 0.17 | 0.17 | 95 | 1012.0 |
| 20260906024202 | 62 | 292 | 0.0 | 0.0 | 0.01 | 0.13 | 0.13 | 92 | 1011.3 |
| 20260906024136 | 61 | 257 | 0.0 | 0.0 | 0.00 | 0.17 | 0.17 | 95 | 1012.0 |
| 20260906023632 | 62 | 257 | 0.0 | 1.0 | 0.00 | 0.17 | 0.17 | 95 | 1012.2 |
| 20260906023202 | 62 | 292 | 0.0 | 0.0 | 0.01 | 0.13 | 0.13 | 92 | 1011.4 |
| 20260906023132 | 62 | 257 | 0.0 | 0.0 | 0.00 | 0.17 | 0.17 | 95 | 1012.1 |
| 20260906022627 | 61 | 257 | 0.0 | 0.0 | 0.00 | 0.17 | 0.17 | 95 | 1012.2 |
| 20260906022202 | 62 | 292 | 0.0 | 0.0 | 0.01 | 0.13 | 0.13 | 92 | 1011.3 |
| 20260906022123 | 62 | 257 | 0.0 | 1.0 | 0.00 | 0.17 | 0.17 | 95 | 1011.9 |
| 20260906021619 | 62 | 257 | 0.0 | 0.0 | 0.07 | 0.17 | 0.17 | 95 | 1012.0 |
| 20260906021202 | 62 | 292 | 0.0 | 0.0 | 0.01 | 0.13 | 0.13 | 92 | 1011.3 |
| 20260906021117 | 62 | 257 | 0.0 | 0.0 | 0.07 | 0.17 | 0.17 | 95 | 1011.9 |
| 20260906020617 | 62 | 257 | 0.0 | 0.0 | 0.00 | 0.16 | 0.16 | 95 | 1011.9 |
| 20260906020202 | 63 | 292 | 0.0 | 0.0 | 0.00 | 0.12 | 0.12 | 91 | 1011.2 |
| 20260906020112 | 62 | 257 | 0.0 | 0.0 | 0.00 | 0.16 | 0.16 | 95 | 1011.9 |
| 20260906015611 | 62 | 257 | 1.0 | 1.0 | 0.00 | 0.16 | 0.16 | 94 | 1011.8 |
| 20260906015202 | 63 | 342 | 0.0 | 0.0 | 0.02 | 0.12 | 0.12 | 91 | 1011.2 |
| 20260906015105 | 62 | 32 | 0.0 | 1.0 | 0.05 | 0.16 | 0.16 | 95 | 1012.0 |
| 20260906014559 | 62 | 41 | 0.0 | 1.0 | 0.05 | 0.16 | 0.16 | 94 | 1011.8 |
| 20260906014224 | 63 | 345 | 0.0 | 0.0 | 0.02 | 0.12 | 0.12 | 91 | 1011.4 |
| 20260906014056 | 62 | 41 | 0.0 | 1.0 | 0.00 | 0.15 | 0.15 | 94 | 1012.2 |
| 20260906013545 | 62 | 98 | 0.0 | 1.0 | 0.00 | 0.15 | 0.15 | 94 | 1012.3 |
| 20260906013202 | 63 | 348 | 0.0 | 0.0 | 0.02 | 0.12 | 0.12 | 91 | 1011.4 |
| 20260906013041 | 62 | 89 | 0.0 | 0.0 | 0.07 | 0.15 | 0.15 | 94 | 1012.2 |
| 20260906012536 | 62 | 91 | 1.0 | 2.0 | 0.00 | 0.14 | 0.14 | 94 | 1012.2 |
| 20260906012203 | 63 | 87 | 0.0 | 0.0 | 0.01 | 0.11 | 0.11 | 91 | 1011.4 |
| 20260906012035 | 62 | 26 | 2.0 | 2.0 | 0.00 | 0.14 | 0.14 | 94 | 1012.3 |
| 20260906011532 | 63 | 279 | 1.0 | 2.0 | 0.00 | 0.14 | 0.14 | 94 | 1012.3 |
| 20260906011202 | 64 | 309 | 0.0 | 0.0 | 0.01 | 0.11 | 0.11 | 91 | 1011.4 |
| 20260906011031 | 63 | 84 | 0.0 | 0.0 | 0.00 | 0.14 | 0.14 | 94 | 1012.2 |
| 20260906010527 | 63 | 111 | 0.0 | 1.0 | 0.12 | 0.14 | 0.14 | 94 | 1012.0 |
| 20260906010202 | 64 | 318 | 0.0 | 0.0 | 0.00 | 0.10 | 0.10 | 90 | 1011.3 |
| 20260906010023 | 63 | 283 | 2.0 | 3.0 | 0.12 | 0.14 | 0.14 | 93 | 1011.9 |
| 20260906005522 | 64 | 123 | 0.0 | 2.0 | 0.05 | 0.12 | 0.12 | 94 | 1011.9 |
| 20260906005223 | 64 | 303 | 0.0 | 0.0 | 0.01 | 0.09 | 0.09 | 90 | 1011.2 |
| 20260906005021 | 63 | 138 | 0.0 | 0.0 | 0.05 | 0.12 | 0.12 | 94 | 1011.8 |
| 20260906004521 | 63 | 129 | 0.0 | 0.0 | 0.00 | 0.11 | 0.11 | 94 | 1011.9 |
| 20260906004202 | 64 | 190 | 0.0 | 0.0 | 0.01 | 0.09 | 0.09 | 90 | 1011.1 |
| 20260906004015 | 63 | 148 | 0.0 | 0.0 | 0.00 | 0.11 | 0.11 | 93 | 1011.8 |
| 20260906003510 | 64 | 136 | 0.0 | 0.0 | 0.00 | 0.11 | 0.11 | 93 | 1011.9 |
| 20260906003202 | 65 | 190 | 0.0 | 0.0 | 0.01 | 0.09 | 0.09 | 90 | 1011.0 |
| 20260906003007 | 63 | 137 | 0.0 | 0.0 | 0.00 | 0.11 | 0.11 | 93 | 1011.7 |
| 20260906002501 | 64 | 137 | 0.0 | 1.0 | 0.07 | 0.11 | 0.11 | 93 | 1011.5 |
| 20260906002202 | 65 | 221 | 0.0 | 0.0 | 0.00 | 0.08 | 0.08 | 90 | 1010.8 |
| 20260906001956 | 64 | 140 | 0.0 | 0.0 | 0.07 | 0.11 | 0.11 | 93 | 1011.5 |
| 20260906001452 | 64 | 180 | 1.0 | 1.0 | 0.00 | 0.10 | 0.10 | 93 | 1011.6 |
| 20260906001202 | 65 | 55 | 0.0 | 0.0 | 0.00 | 0.08 | 0.08 | 90 | 1010.9 |
| 20260906000946 | 64 | 125 | 0.0 | 0.0 | 0.00 | 0.10 | 0.10 | 94 | 1011.6 |
| 20260906000441 | 64 | 120 | 0.0 | 0.0 | 0.00 | 0.10 | 0.10 | 93 | 1011.6 |
| 20260906000204 | 65 | 55 | 0.0 | 0.0 | 0.00 | 0.08 | 0.08 | 89 | 1010.8 |
| 20260905235936 | 64 | 137 | 0.0 | 0.0 | 0.00 | 0.10 | 0.10 | 93 | 1011.4 |
| 20260905235436 | 64 | 134 | 0.0 | 1.0 | 0.00 | 0.10 | 0.10 | 93 | 1011.4 |
| 20260905235202 | 66 | 55 | 0.0 | 0.0 | 0.00 | 0.08 | 0.08 | 89 | 1010.7 |
| 20260905234931 | 64 | 176 | 1.0 | 1.0 | 0.00 | 0.10 | 0.10 | 93 | 1011.5 |
| 20260905234426 | 64 | 132 | 0.0 | 0.0 | 0.00 | 0.10 | 0.10 | 93 | 1011.4 |
| 20260905234202 | 66 | 28 | 0.0 | 0.0 | 0.00 | 0.08 | 0.08 | 89 | 1010.6 |
| 20260905233921 | 64 | 135 | 0.0 | 0.0 | 0.00 | 0.10 | 0.10 | 93 | 1011.2 |
| 20260905233416 | 64 | 138 | 0.0 | 1.0 | 0.00 | 0.10 | 0.10 | 93 | 1011.1 |
| 20260905233202 | 66 | 360 | 0.0 | 0.0 | 0.00 | 0.08 | 0.08 | 88 | 1010.4 |
| 20260905232915 | 64 | 98 | 0.0 | 0.0 | 0.00 | 0.10 | 0.10 | 93 | 1011.1 |
| 20260905232411 | 65 | 120 | 0.0 | 0.0 | 0.00 | 0.10 | 0.10 | 92 | 1011.1 |
| 20260905232223 | 66 | 114 | 0.0 | 0.0 | 0.00 | 0.08 | 0.08 | 88 | 1010.4 |
| 20260905231907 | 65 | 139 | 0.0 | 0.0 | 0.00 | 0.10 | 0.10 | 92 | 1011.3 |
| 20260905231403 | 65 | 152 | 0.0 | 0.0 | 0.00 | 0.10 | 0.10 | 92 | 1011.2 |
| 20260905231202 | 67 | 115 | 0.0 | 0.0 | 0.00 | 0.08 | 0.08 | 87 | 1010.4 |
| 20260905230859 | 65 | 155 | 0.0 | 0.0 | 0.00 | 0.10 | 0.10 | 91 | 1011.1 |
| 20260905230356 | 65 | 132 | 0.0 | 0.0 | 0.00 | 0.10 | 0.10 | 91 | 1011.0 |
| 20260905230202 | 67 | 115 | 0.0 | 0.0 | 0.00 | 0.08 | 0.08 | 87 | 1010.2 |
| 20260905225855 | 66 | 154 | 0.0 | 0.0 | 0.00 | 0.10 | 0.10 | 90 | 1010.9 |
| 20260905225345 | 66 | 133 | 0.0 | 0.0 | 0.05 | 0.10 | 0.10 | 90 | 1011.0 |
| 20260905225202 | 67 | 115 | 0.0 | 0.0 | 0.00 | 0.08 | 0.08 | 86 | 1010.2 |
| 20260905224840 | 66 | 143 | 0.0 | 0.0 | 0.05 | 0.10 | 0.10 | 88 | 1011.1 |
| 20260905224335 | 66 | 149 | 0.0 | 0.0 | 0.00 | 0.09 | 0.09 | 88 | 1010.9 |
| 20260905224202 | 67 | 115 | 0.0 | 0.0 | 0.00 | 0.08 | 0.08 | 86 | 1010.1 |
| 20260905223830 | 66 | 132 | 0.0 | 0.0 | 0.00 | 0.09 | 0.09 | 88 | 1010.8 |
| 20260905223328 | 66 | 153 | 0.0 | 0.0 | 0.00 | 0.09 | 0.09 | 87 | 1010.8 |
| 20260905223202 | 67 | 115 | 0.0 | 0.0 | 0.00 | 0.08 | 0.08 | 86 | 1010.0 |
| 20260905222823 | 67 | 138 | 0.0 | 0.0 | 0.00 | 0.09 | 0.09 | 87 | 1010.9 |
| 20260905222322 | 67 | 143 | 0.0 | 0.0 | 0.00 | 0.09 | 0.09 | 86 | 1010.7 |
| 20260905222223 | 67 | 115 | 0.0 | 0.0 | 0.00 | 0.08 | 0.08 | 86 | 1009.9 |
| 20260905221818 | 67 | 171 | 0.0 | 0.0 | 0.00 | 0.09 | 0.09 | 86 | 1010.8 |
| 20260905221315 | 67 | 141 | 0.0 | 0.0 | 0.00 | 0.09 | 0.09 | 86 | 1010.6 |
| 20260905221202 | 67 | 115 | 0.0 | 0.0 | 0.00 | 0.08 | 0.08 | 85 | 1010.0 |
| 20260905220810 | 67 | 149 | 0.0 | 0.0 | 0.00 | 0.09 | 0.09 | 86 | 1010.6 |
| 20260905220306 | 67 | 167 | 0.0 | 0.0 | 0.00 | 0.09 | 0.09 | 86 | 1010.6 |
| 20260905220202 | 67 | 115 | 0.0 | 0.0 | 0.00 | 0.08 | 0.08 | 85 | 1009.8 |
| 20260905215805 | 67 | 143 | 0.0 | 0.0 | 0.00 | 0.09 | 0.09 | 85 | 1010.3 |
| 20260905215301 | 67 | 126 | 0.0 | 0.0 | 0.00 | 0.09 | 0.09 | 85 | 1010.3 |
| 20260905215202 | 67 | 112 | 0.0 | 0.0 | 0.00 | 0.08 | 0.08 | 84 | 1009.7 |
| 20260905214756 | 67 | 100 | 0.0 | 0.0 | 0.00 | 0.09 | 0.09 | 84 | 1010.5 |
| 20260905214252 | 67 | 95 | 0.0 | 0.0 | 0.00 | 0.09 | 0.09 | 84 | 1010.2 |
| 20260905214202 | 67 | 137 | 0.0 | 0.0 | 0.00 | 0.08 | 0.08 | 84 | 1009.5 |
| 20260905213747 | 67 | 143 | 0.0 | 0.0 | 0.00 | 0.09 | 0.09 | 84 | 1010.3 |
| 20260905213243 | 67 | 147 | 0.0 | 1.0 | 0.00 | 0.09 | 0.09 | 84 | 1010.4 |
| 20260905213202 | 68 | 138 | 0.0 | 0.0 | 0.00 | 0.08 | 0.08 | 84 | 1009.4 |
| 20260905212738 | 67 | 151 | 2.0 | 3.0 | 0.00 | 0.09 | 0.09 | 83 | 1010.2 |
| 20260905212237 | 67 | 60 | 1.0 | 2.0 | 0.00 | 0.09 | 0.09 | 83 | 1010.1 |
| 20260905212202 | 68 | 211 | 0.0 | 2.0 | 0.00 | 0.08 | 0.08 | 84 | 1009.3 |
| 20260905211737 | 68 | 134 | 1.0 | 4.0 | 0.00 | 0.09 | 0.09 | 82 | 1010.1 |
| 20260905211232 | 68 | 22 | 2.0 | 2.0 | 0.00 | 0.09 | 0.09 | 82 | 1010.1 |
| 20260905211202 | 68 | 78 | 0.0 | 8.0 | 0.00 | 0.08 | 0.08 | 83 | 1009.3 |
| 20260905210729 | 69 | 42 | 3.0 | 3.0 | 0.00 | 0.09 | 0.09 | 80 | 1010.1 |
| 20260905210228 | 69 | 76 | 1.0 | 6.0 | 0.00 | 0.09 | 0.09 | 80 | 1009.9 |
| 20260905210202 | 68 | 113 | 2.0 | 9.0 | 0.00 | 0.08 | 0.08 | 84 | 1009.2 |
| 20260905205727 | 69 | 53 | 2.0 | 3.0 | 0.00 | 0.09 | 0.09 | 81 | 1009.9 |
| 20260905205222 | 69 | 150 | 1.0 | 4.0 | 0.00 | 0.09 | 0.09 | 82 | 1009.7 |
| 20260905205202 | 68 | 101 | 0.0 | 1.0 | 0.00 | 0.08 | 0.08 | 84 | 1009.1 |
| 20260905204722 | 68 | 197 | 1.0 | 4.0 | 0.00 | 0.09 | 0.09 | 83 | 1009.8 |
| 20260905204218 | 68 | 143 | 1.0 | 2.0 | 0.00 | 0.09 | 0.09 | 84 | 1010.0 |
| 20260905204202 | 68 | 132 | 0.0 | 4.0 | 0.00 | 0.08 | 0.08 | 85 | 1009.0 |
| 20260905203717 | 68 | 107 | 4.0 | 6.0 | 0.00 | 0.09 | 0.09 | 84 | 1009.8 |
| 20260905203213 | 68 | 142 | 2.0 | 9.0 | 0.00 | 0.09 | 0.09 | 84 | 1009.9 |
| 20260905202709 | 68 | 133 | 0.0 | 3.0 | 0.00 | 0.09 | 0.09 | 86 | 1009.8 |
| 20260905202403 | 69 | 109 | 1.0 | 11.0 | 0.08 | 0.08 | 0.08 | 84 | 1009.3 |
| 20260905202203 | 68 | 172 | 1.0 | 4.0 | 0.00 | 0.09 | 0.09 | 88 | 1009.8 |
| 20260905201659 | 67 | 160 | 1.0 | 6.0 | 0.00 | 0.09 | 0.09 | 87 | 1009.8 |
| 20260905201353 | 70 | 83 | 0.0 | 4.0 | 0.08 | 0.08 | 0.08 | 81 | 1009.3 |
| 20260905201158 | 67 | 160 | 3.0 | 4.0 | 0.00 | 0.09 | 0.09 | 87 | 1009.8 |
| 20260905200702 | 71 | 134 | 0.0 | 7.0 | 0.08 | 0.08 | 0.08 | 79 | 1008.8 |
| 20260905200654 | 68 | 105 | 1.0 | 2.0 | 0.00 | 0.09 | 0.09 | 88 | 1009.6 |
| 20260905200203 | 72 | 93 | 1.0 | 3.0 | 0.08 | 0.08 | 0.08 | 77 | 1008.6 |
| 20260905200149 | 68 | 68 | 1.0 | 3.0 | 0.00 | 0.09 | 0.09 | 89 | 1009.7 |
| 20260905195703 | 73 | 116 | 0.0 | 0.0 | 0.08 | 0.08 | 0.08 | 75 | 1008.6 |
| 20260905195648 | 67 | 184 | 1.0 | 1.0 | 0.07 | 0.09 | 0.09 | 87 | 1009.4 |
| 20260905195203 | 73 | 116 | 0.0 | 0.0 | 0.07 | 0.07 | 0.07 | 73 | 1008.5 |
| 20260905195143 | 68 | 144 | 0.0 | 1.0 | 0.54 | 0.09 | 0.09 | 84 | 1009.3 |
| 20260905194638 | 71 | 173 | 1.0 | 2.0 | 0.42 | 0.07 | 0.07 | 76 | 1009.6 |
| 20260905194203 | 75 | 21 | 2.0 | 14.0 | 0.00 | 0.00 | 0.00 | 65 | 1008.5 |
| 20260905194137 | 75 | 197 | 4.0 | 7.0 | 0.00 | 0.00 | 0.00 | 62 | 1009.3 |
| 20260905193703 | 76 | 323 | 0.0 | 3.0 | 0.00 | 0.00 | 0.00 | 61 | 1008.3 |
| 20260905193633 | 76 | 41 | 1.0 | 3.0 | 0.00 | 0.00 | 0.00 | 57 | 1009.1 |
| 20260905193203 | 76 | 316 | 0.0 | 0.0 | 0.00 | 0.00 | 0.00 | 61 | 1008.2 |
| 20260905193133 | 76 | 217 | 1.0 | 2.0 | 0.00 | 0.00 | 0.00 | 56 | 1009.1 |
| 20260905192703 | 76 | 306 | 0.0 | 0.0 | 0.00 | 0.00 | 0.00 | 61 | 1008.2 |
| 20260905192628 | 76 | 193 | 1.0 | 3.0 | 0.00 | 0.00 | 0.00 | 57 | 1009.1 |
| 20260905192203 | 77 | 27 | 0.0 | 0.0 | 0.00 | 0.00 | 0.00 | 60 | 1008.1 |
| 20260905192125 | 76 | 189 | 1.0 | 3.0 | 0.00 | 0.00 | 0.00 | 57 | 1009.0 |
| 20260905191703 | 77 | 283 | 0.0 | 0.0 | 0.00 | 0.00 | 0.00 | 61 | 1008.1 |
| 20260905191624 | 76 | 251 | 2.0 | 4.0 | 0.00 | 0.00 | 0.00 | 58 | 1009.0 |
| 20260905191203 | 77 | 349 | 0.0 | 0.0 | 0.00 | 0.00 | 0.00 | 60 | 1008.2 |
| 20260905191122 | 77 | 249 | 2.0 | 2.0 | 0.00 | 0.00 | 0.00 | 56 | 1008.9 |
| 20260905190703 | 77 | 147 | 0.0 | 0.0 | 0.00 | 0.00 | 0.00 | 60 | 1008.2 |
| 20260905190621 | 77 | 232 | 1.0 | 3.0 | 0.00 | 0.00 | 0.00 | 55 | 1009.1 |
| 20260905190203 | 77 | 117 | 0.0 | 1.0 | 0.00 | 0.00 | 0.00 | 61 | 1008.2 |
| 20260905190121 | 78 | 267 | 1.0 | 2.0 | 0.00 | 0.00 | 0.00 | 55 | 1009.2 |
| 20260905185703 | 77 | 15 | 0.0 | 3.0 | 0.00 | 0.00 | 0.00 | 61 | 1008.1 |
| 20260905185619 | 77 | 167 | 3.0 | 6.0 | 0.00 | 0.00 | 0.00 | 56 | 1008.9 |
| 20260905185202 | 77 | 343 | 0.0 | 1.0 | 0.00 | 0.00 | 0.00 | 62 | 1008.2 |
| 20260905185114 | 77 | 18 | 1.0 | 3.0 | 0.00 | 0.00 | 0.00 | 55 | 1008.9 |
| 20260905184703 | 76 | 312 | 0.0 | 0.0 | 0.00 | 0.00 | 0.00 | 63 | 1008.1 |
| 20260905184609 | 77 | 302 | 1.0 | 2.0 | 0.00 | 0.00 | 0.00 | 57 | 1008.8 |
| 20260905184108 | 76 | 257 | 4.0 | 6.0 | 0.00 | 0.00 | 0.00 | 57 | 1009.0 |
| 20260905183607 | 75 | 320 | 2.0 | 6.0 | 0.00 | 0.00 | 0.00 | 58 | 1009.0 |
| 20260905183102 | 75 | 16 | 2.0 | 3.0 | 0.00 | 0.00 | 0.00 | 57 | 1008.9 |
| 20260905182703 | 75 | 126 | 1.0 | 12.0 | 0.00 | 0.00 | 0.00 | 63 | 1008.1 |
| 20260905182602 | 76 | 165 | 3.0 | 6.0 | 0.00 | 0.00 | 0.00 | 57 | 1008.8 |
| 20260905182203 | 75 | 358 | 0.0 | 8.0 | 0.00 | 0.00 | 0.00 | 64 | 1008.1 |
| 20260905182056 | 75 | 351 | 2.0 | 7.0 | 0.00 | 0.00 | 0.00 | 60 | 1009.1 |
| 20260905181704 | 75 | 146 | 0.0 | 0.0 | 0.00 | 0.00 | 0.00 | 64 | 1008.1 |
| 20260905181551 | 75 | 138 | 3.0 | 4.0 | 0.00 | 0.00 | 0.00 | 60 | 1009.1 |
| 20260905181203 | 75 | 96 | 0.0 | 0.0 | 0.00 | 0.00 | 0.00 | 64 | 1008.1 |
| 20260905181050 | 75 | 152 | 1.0 | 3.0 | 0.00 | 0.00 | 0.00 | 59 | 1008.9 |
| 20260905180703 | 75 | 264 | 0.0 | 3.0 | 0.00 | 0.00 | 0.00 | 63 | 1008.1 |
| 20260905180545 | 75 | 128 | 1.0 | 3.0 | 0.00 | 0.00 | 0.00 | 60 | 1008.9 |
| 20260905180203 | 76 | 59 | 0.0 | 0.0 | 0.00 | 0.00 | 0.00 | 64 | 1008.2 |
| 20260905180041 | 76 | 118 | 0.0 | 2.0 | 0.00 | 0.00 | 0.00 | 60 | 1009.0 |
| 20260905175539 | 76 | 83 | 3.0 | 4.0 | 0.00 | 0.00 | 0.00 | 58 | 1009.0 |
| 20260905175204 | 76 | 345 | 0.0 | 5.0 | 0.00 | 0.00 | 0.00 | 63 | 1008.1 |
| 20260905175036 | 76 | 270 | 2.0 | 3.0 | 0.00 | 0.00 | 0.00 | 60 | 1008.9 |
| 20260905174703 | 76 | 353 | 0.0 | 2.0 | 0.00 | 0.00 | 0.00 | 63 | 1008.1 |
| 20260905174531 | 77 | 78 | 2.0 | 4.0 | 0.00 | 0.00 | 0.00 | 57 | 1008.9 |
| 20260905174026 | 78 | 93 | 1.0 | 3.0 | 0.00 | 0.00 | 0.00 | 56 | 1009.1 |
| 20260905173703 | 76 | 355 | 0.0 | 1.0 | 0.00 | 0.00 | 0.00 | 64 | 1008.1 |
| 20260905173523 | 77 | 325 | 1.0 | 2.0 | 0.00 | 0.00 | 0.00 | 58 | 1009.2 |
| 20260905173018 | 76 | 52 | 3.0 | 4.0 | 0.00 | 0.00 | 0.00 | 60 | 1008.9 |
| 20260905172703 | 76 | 136 | 0.0 | 1.0 | 0.00 | 0.00 | 0.00 | 65 | 1007.9 |
| 20260905172516 | 75 | 146 | 0.0 | 3.0 | 0.00 | 0.00 | 0.00 | 59 | 1008.9 |
| 20260905172203 | 76 | 106 | 1.0 | 9.0 | 0.00 | 0.00 | 0.00 | 64 | 1008.0 |
| 20260905172012 | 75 | 176 | 2.0 | 3.0 | 0.00 | 0.00 | 0.00 | 61 | 1008.6 |
| 20260905171703 | 76 | 120 | 0.0 | 2.0 | 0.00 | 0.00 | 0.00 | 63 | 1008.0 |
| 20260905171508 | 76 | 142 | 1.0 | 6.0 | 0.00 | 0.00 | 0.00 | 58 | 1008.8 |
| 20260905171203 | 76 | 122 | 0.0 | 2.0 | 0.00 | 0.00 | 0.00 | 63 | 1008.0 |
| 20260905171004 | 77 | 21 | 2.0 | 6.0 | 0.00 | 0.00 | 0.00 | 56 | 1008.7 |
| 20260905170702 | 76 | 94 | 0.0 | 1.0 | 0.00 | 0.00 | 0.00 | 64 | 1007.9 |
| 20260905170500 | 77 | 111 | 1.0 | 4.0 | 0.00 | 0.00 | 0.00 | 55 | 1008.6 |
| 20260905165959 | 76 | 142 | 0.0 | 4.0 | 0.00 | 0.00 | 0.00 | 56 | 1008.9 |
| 20260905165703 | 75 | 68 | 0.0 | 5.0 | 0.00 | 0.00 | 0.00 | 65 | 1008.1 |
| 20260905165455 | 75 | 63 | 5.0 | 7.0 | 0.00 | 0.00 | 0.00 | 59 | 1008.9 |
| 20260905165203 | 75 | 354 | 0.0 | 3.0 | 0.00 | 0.00 | 0.00 | 64 | 1008.1 |
| 20260905164950 | 75 | 92 | 2.0 | 3.0 | 0.00 | 0.00 | 0.00 | 57 | 1008.9 |
| 20260905164703 | 75 | 2 | 0.0 | 0.0 | 0.00 | 0.00 | 0.00 | 65 | 1008.0 |
| 20260905164444 | 76 | 147 | 0.0 | 4.0 | 0.00 | 0.00 | 0.00 | 58 | 1008.8 |
| 20260905164203 | 74 | 336 | 1.0 | 9.0 | 0.00 | 0.00 | 0.00 | 67 | 1008.0 |
| 20260905163939 | 75 | 279 | 3.0 | 7.0 | 0.00 | 0.00 | 0.00 | 59 | 1008.8 |
| 20260905163436 | 74 | 94 | 1.0 | 2.0 | 0.00 | 0.00 | 0.00 | 60 | 1009.1 |
| 20260905163203 | 73 | 48 | 0.0 | 0.0 | 0.00 | 0.00 | 0.00 | 68 | 1008.1 |
| 20260905162931 | 73 | 105 | 1.0 | 2.0 | 0.00 | 0.00 | 0.00 | 63 | 1009.2 |
| 20260905162426 | 73 | 170 | 2.0 | 4.0 | 0.00 | 0.00 | 0.00 | 62 | 1009.2 |
| 20260905162203 | 73 | 336 | 0.0 | 3.0 | 0.00 | 0.00 | 0.00 | 67 | 1008.2 |
| 20260905161921 | 74 | 62 | 2.0 | 6.0 | 0.00 | 0.00 | 0.00 | 61 | 1009.2 |
| 20260905161703 | 74 | 225 | 0.0 | 7.0 | 0.00 | 0.00 | 0.00 | 67 | 1008.2 |
| 20260905161420 | 75 | 199 | 2.0 | 4.0 | 0.00 | 0.00 | 0.00 | 59 | 1009.0 |
| 20260905161203 | 74 | 136 | 0.0 | 1.0 | 0.00 | 0.00 | 0.00 | 68 | 1008.2 |
| 20260905160918 | 74 | 78 | 1.0 | 9.0 | 0.00 | 0.00 | 0.00 | 61 | 1008.9 |
| 20260905160703 | 73 | 352 | 1.0 | 7.0 | 0.00 | 0.00 | 0.00 | 70 | 1008.2 |
| 20260905160412 | 74 | 151 | 0.0 | 4.0 | 0.00 | 0.00 | 0.00 | 64 | 1009.1 |
| 20260905160203 | 73 | 325 | 0.0 | 1.0 | 0.00 | 0.00 | 0.00 | 72 | 1008.3 |
| 20260905155906 | 74 | 237 | 4.0 | 6.0 | 0.00 | 0.00 | 0.00 | 64 | 1009.1 |
| 20260905155703 | 72 | 357 | 0.0 | 0.0 | 0.00 | 0.00 | 0.00 | 74 | 1008.3 |
| 20260905155401 | 73 | 281 | 2.0 | 3.0 | 0.00 | 0.00 | 0.00 | 67 | 1009.0 |
| 20260905154900 | 73 | 29 | 2.0 | 3.0 | 0.00 | 0.00 | 0.00 | 67 | 1009.2 |
| 20260905154703 | 72 | 322 | 0.0 | 0.0 | 0.00 | 0.00 | 0.00 | 76 | 1008.3 |
| 20260905154355 | 72 | 233 | 2.0 | 3.0 | 0.00 | 0.00 | 0.00 | 71 | 1009.2 |
| 20260905154203 | 71 | 20 | 0.0 | 0.0 | 0.00 | 0.00 | 0.00 | 77 | 1008.4 |
| 20260905153851 | 71 | 302 | 2.0 | 3.0 | 0.00 | 0.00 | 0.00 | 72 | 1009.3 |
| 20260905153347 | 71 | 123 | 0.0 | 2.0 | 0.00 | 0.00 | 0.00 | 74 | 1009.2 |
| 20260905152847 | 71 | 266 | 2.0 | 3.0 | 0.00 | 0.00 | 0.00 | 74 | 1009.2 |
| 20260905152703 | 71 | 316 | 0.0 | 0.0 | 0.00 | 0.00 | 0.00 | 78 | 1008.4 |
| 20260905152345 | 70 | 249 | 2.0 | 4.0 | 0.00 | 0.00 | 0.00 | 74 | 1009.2 |
| 20260905152203 | 71 | 296 | 0.0 | 0.0 | 0.00 | 0.00 | 0.00 | 78 | 1008.5 |
| 20260905151841 | 69 | 82 | 2.0 | 4.0 | 0.00 | 0.00 | 0.00 | 77 | 1009.2 |
| 20260905151703 | 71 | 316 | 0.0 | 0.0 | 0.00 | 0.00 | 0.00 | 77 | 1008.4 |
| 20260905151336 | 70 | 269 | 2.0 | 3.0 | 0.00 | 0.00 | 0.00 | 77 | 1009.2 |
| 20260905151203 | 71 | 310 | 0.0 | 0.0 | 0.00 | 0.00 | 0.00 | 76 | 1008.5 |
| 20260905150830 | 70 | 289 | 2.0 | 3.0 | 0.00 | 0.00 | 0.00 | 75 | 1009.3 |
| 20260905150703 | 71 | 301 | 0.0 | 1.0 | 0.00 | 0.00 | 0.00 | 75 | 1008.5 |
| 20260905150325 | 71 | 267 | 2.0 | 3.0 | 0.00 | 0.00 | 0.00 | 71 | 1009.2 |
| 20260905145822 | 72 | 122 | 1.0 | 2.0 | 0.00 | 0.00 | 0.00 | 69 | 1009.3 |
| 20260905145317 | 72 | 356 | 1.0 | 3.0 | 0.00 | 0.00 | 0.00 | 69 | 1009.3 |
| 20260905145203 | 71 | 38 | 0.0 | 1.0 | 0.00 | 0.00 | 0.00 | 75 | 1008.4 |
| 20260905144815 | 72 | 328 | 1.0 | 6.0 | 0.00 | 0.00 | 0.00 | 69 | 1009.2 |
| 20260905144312 | 72 | 74 | 2.0 | 4.0 | 0.00 | 0.00 | 0.00 | 69 | 1009.1 |
| 20260905144203 | 71 | 325 | 0.0 | 0.0 | 0.00 | 0.00 | 0.00 | 77 | 1008.4 |
| 20260905143810 | 71 | 261 | 1.0 | 2.0 | 0.00 | 0.00 | 0.00 | 72 | 1009.1 |
| 20260905143703 | 70 | 346 | 0.0 | 0.0 | 0.00 | 0.00 | 0.00 | 77 | 1008.4 |
| 20260905143305 | 71 | 16 | 0.0 | 1.0 | 0.00 | 0.00 | 0.00 | 70 | 1009.2 |
| 20260905143203 | 70 | 340 | 0.0 | 0.0 | 0.00 | 0.00 | 0.00 | 77 | 1008.4 |
| 20260905142804 | 71 | 93 | 1.0 | 2.0 | 0.00 | 0.00 | 0.00 | 70 | 1009.4 |
| 20260905142257 | 71 | 128 | 1.0 | 2.0 | 0.00 | 0.00 | 0.00 | 70 | 1009.3 |
| 20260905142203 | 70 | 30 | 0.0 | 0.0 | 0.00 | 0.00 | 0.00 | 79 | 1008.5 |
| 20260905141754 | 71 | 269 | 2.0 | 3.0 | 0.00 | 0.00 | 0.00 | 70 | 1009.3 |
| 20260905141704 | 69 | 318 | 0.0 | 0.0 | 0.00 | 0.00 | 0.00 | 80 | 1008.5 |
| 20260905141249 | 71 | 126 | 1.0 | 2.0 | 0.00 | 0.00 | 0.00 | 72 | 1009.4 |
| 20260905141203 | 69 | 88 | 0.0 | 0.0 | 0.00 | 0.00 | 0.00 | 81 | 1008.5 |
| 20260905140744 | 70 | 322 | 2.0 | 2.0 | 0.00 | 0.00 | 0.00 | 73 | 1009.4 |
| 20260905140703 | 69 | 6 | 0.0 | 0.0 | 0.00 | 0.00 | 0.00 | 82 | 1008.5 |
| 20260905140239 | 69 | 236 | 2.0 | 3.0 | 0.00 | 0.00 | 0.00 | 75 | 1009.2 |
| 20260905140203 | 68 | 284 | 0.0 | 0.0 | 0.00 | 0.00 | 0.00 | 83 | 1008.4 |
| 20260905135738 | 69 | 204 | 0.0 | 2.0 | 0.00 | 0.00 | 0.00 | 75 | 1009.3 |
| 20260905135703 | 68 | 289 | 0.0 | 0.0 | 0.00 | 0.00 | 0.00 | 83 | 1008.5 |
| 20260905135234 | 69 | 189 | 0.0 | 1.0 | 0.00 | 0.00 | 0.00 | 75 | 1009.2 |
| 20260905135203 | 68 | 57 | 0.0 | 1.0 | 0.00 | 0.00 | 0.00 | 84 | 1008.5 |
| 20260905134733 | 69 | 168 | 2.0 | 3.0 | 0.00 | 0.00 | 0.00 | 75 | 1009.1 |
| 20260905134703 | 67 | 332 | 0.0 | 1.0 | 0.00 | 0.00 | 0.00 | 85 | 1008.4 |
| 20260905134232 | 69 | 201 | 1.0 | 2.0 | 0.00 | 0.00 | 0.00 | 77 | 1009.2 |
| 20260905134204 | 67 | 94 | 0.0 | 0.0 | 0.00 | 0.00 | 0.00 | 86 | 1008.4 |
| 20260905133727 | 69 | 119 | 0.0 | 2.0 | 0.00 | 0.00 | 0.00 | 78 | 1009.2 |
| 20260905133703 | 67 | 298 | 0.0 | 0.0 | 0.00 | 0.00 | 0.00 | 87 | 1008.3 |
| 20260905133222 | 68 | 299 | 0.0 | 3.0 | 0.00 | 0.00 | 0.00 | 77 | 1008.9 |
| 20260905133203 | 66 | 305 | 0.0 | 0.0 | 0.00 | 0.00 | 0.00 | 88 | 1008.3 |
| 20260905132721 | 68 | 340 | 1.0 | 1.0 | 0.00 | 0.00 | 0.00 | 79 | 1008.9 |
| 20260905132217 | 68 | 137 | 0.0 | 2.0 | 0.00 | 0.00 | 0.00 | 79 | 1009.0 |
| 20260905132203 | 65 | 29 | 0.0 | 0.0 | 0.00 | 0.00 | 0.00 | 89 | 1008.1 |
| 20260905131713 | 67 | 132 | 1.0 | 2.0 | 0.00 | 0.00 | 0.00 | 80 | 1008.7 |
| 20260905131208 | 67 | 88 | 1.0 | 2.0 | 0.00 | 0.00 | 0.00 | 81 | 1008.8 |
| 20260905131203 | 65 | 63 | 0.0 | 0.0 | 0.00 | 0.00 | 0.00 | 90 | 1008.0 |
| 20260905130708 | 66 | 296 | 3.0 | 3.0 | 0.00 | 0.00 | 0.00 | 82 | 1008.8 |
| 20260905130704 | 64 | 329 | 0.0 | 0.0 | 0.00 | 0.00 | 0.00 | 90 | 1008.1 |
| 20260905130203 | 64 | 327 | 0.0 | 0.0 | 0.00 | 0.00 | 0.00 | 90 | 1008.0 |
| 20260905125703 | 64 | 340 | 0.0 | 0.0 | 0.00 | 0.00 | 0.00 | 91 | 1008.0 |
| 20260905125701 | 65 | 69 | 0.0 | 1.0 | 0.00 | 0.00 | 0.00 | 83 | 1008.8 |
| 20260905125157 | 65 | 210 | 1.0 | 2.0 | 0.00 | 0.00 | 0.00 | 83 | 1008.6 |
| 20260905124653 | 65 | 101 | 0.0 | 2.0 | 0.00 | 0.00 | 0.00 | 84 | 1008.6 |
| 20260905124149 | 65 | 341 | 2.0 | 2.0 | 0.00 | 0.00 | 0.00 | 84 | 1008.9 |
| 20260905123703 | 63 | 8 | 0.0 | 0.0 | 0.00 | 0.00 | 0.00 | 92 | 1007.9 |
| 20260905123644 | 65 | 125 | 0.0 | 3.0 | 0.00 | 0.00 | 0.00 | 84 | 1008.6 |
| 20260905123203 | 63 | 351 | 0.0 | 0.0 | 0.00 | 0.00 | 0.00 | 92 | 1007.8 |
| 20260905123141 | 65 | 139 | 0.0 | 1.0 | 0.00 | 0.00 | 0.00 | 85 | 1008.6 |
| 20260905122703 | 63 | 302 | 0.0 | 0.0 | 0.00 | 0.00 | 0.00 | 92 | 1007.7 |
| 20260905122641 | 64 | 108 | 0.0 | 1.0 | 0.00 | 0.00 | 0.00 | 85 | 1008.4 |
| 20260905122136 | 64 | 111 | 1.0 | 2.0 | 0.00 | 0.00 | 0.00 | 85 | 1008.3 |
| 20260905121630 | 64 | 17 | 1.0 | 1.0 | 0.00 | 0.00 | 0.00 | 86 | 1008.4 |
| 20260905121204 | 62 | 331 | 0.0 | 0.0 | 0.00 | 0.00 | 0.00 | 92 | 1007.6 |
| 20260905121126 | 64 | 336 | 1.0 | 2.0 | 0.00 | 0.00 | 0.00 | 86 | 1008.2 |
| 20260905120703 | 62 | 7 | 0.0 | 0.0 | 0.00 | 0.00 | 0.00 | 92 | 1007.6 |
| 20260905120625 | 64 | 82 | 0.0 | 0.0 | 0.00 | 0.00 | 0.00 | 87 | 1008.4 |
| 20260905120120 | 64 | 288 | 0.0 | 0.0 | 0.00 | 0.00 | 0.00 | 88 | 1008.4 |
| 20260905115703 | 62 | 345 | 0.0 | 0.0 | 0.00 | 0.00 | 0.00 | 92 | 1007.5 |
| 20260905115619 | 63 | 121 | 0.0 | 2.0 | 0.00 | 0.00 | 0.00 | 89 | 1008.2 |
| 20260905115203 | 62 | 311 | 0.0 | 0.0 | 0.00 | 0.00 | 0.00 | 92 | 1007.5 |
| 20260905115114 | 63 | 86 | 0.0 | 2.0 | 0.00 | 0.00 | 0.00 | 91 | 1008.1 |
| 20260905114703 | 62 | 20 | 0.0 | 0.0 | 0.00 | 0.00 | 0.00 | 92 | 1007.4 |
| 20260905114614 | 63 | 16 | 0.0 | 0.0 | 0.00 | 0.00 | 0.00 | 92 | 1008.2 |
| 20260905114203 | 61 | 341 | 0.0 | 0.0 | 0.00 | 0.00 | 0.00 | 92 | 1007.5 |
| 20260905114113 | 62 | 122 | 0.0 | 0.0 | 0.00 | 0.00 | 0.00 | 93 | 1008.1 |
| 20260905113703 | 61 | 341 | 0.0 | 0.0 | 0.00 | 0.00 | 0.00 | 92 | 1007.5 |
| 20260905113608 | 62 | 130 | 0.0 | 0.0 | 0.00 | 0.00 | 0.00 | 93 | 1008.1 |
| 20260905113203 | 61 | 342 | 0.0 | 0.0 | 0.00 | 0.00 | 0.00 | 92 | 1007.4 |
| 20260905113058 | 62 | 130 | 0.0 | 0.0 | 0.00 | 0.00 | 0.00 | 94 | 1008.1 |
| 20260905112703 | 61 | 342 | 0.0 | 0.0 | 0.00 | 0.00 | 0.00 | 92 | 1007.4 |
| 20260905112552 | 62 | 107 | 0.0 | 0.0 | 0.00 | 0.00 | 0.00 | 94 | 1008.0 |
| 20260905112203 | 61 | 342 | 0.0 | 0.0 | 0.00 | 0.00 | 0.00 | 92 | 1007.4 |
| 20260905112048 | 61 | 107 | 0.0 | 0.0 | 0.00 | 0.00 | 0.00 | 94 | 1008.1 |
| 20260905111703 | 61 | 342 | 0.0 | 0.0 | 0.00 | 0.00 | 0.00 | 92 | 1007.3 |
| 20260905111543 | 61 | 107 | 0.0 | 0.0 | 0.00 | 0.00 | 0.00 | 95 | 1008.0 |
| 20260905111203 | 60 | 342 | 0.0 | 0.0 | 0.00 | 0.00 | 0.00 | 91 | 1007.4 |
| 20260905111042 | 61 | 107 | 0.0 | 0.0 | 0.00 | 0.00 | 0.00 | 95 | 1008.1 |
| 20260905110703 | 60 | 342 | 0.0 | 0.0 | 0.00 | 0.00 | 0.00 | 91 | 1007.4 |
| 20260905110541 | 60 | 107 | 0.0 | 0.0 | 0.00 | 0.00 | 0.00 | 95 | 1008.1 |
| 20260905110203 | 60 | 342 | 0.0 | 0.0 | 0.00 | 0.00 | 0.00 | 91 | 1007.3 |
| 20260905110036 | 60 | 104 | 0.0 | 0.0 | 0.00 | 0.00 | 0.00 | 95 | 1007.9 |
| 20260905105536 | 60 | 104 | 0.0 | 0.0 | 0.00 | 0.00 | 0.00 | 95 | 1007.9 |
| 20260905105203 | 60 | 342 | 0.0 | 0.0 | 0.00 | 0.00 | 0.00 | 91 | 1007.2 |
| 20260905105035 | 60 | 104 | 0.0 | 0.0 | 0.00 | 0.00 | 0.00 | 95 | 1007.9 |
| 20260905104703 | 59 | 342 | 0.0 | 0.0 | 0.00 | 0.00 | 0.00 | 91 | 1007.2 |
| 20260905104532 | 59 | 118 | 0.0 | 0.0 | 0.00 | 0.00 | 0.00 | 95 | 1007.9 |
| 20260905104203 | 59 | 342 | 0.0 | 0.0 | 0.00 | 0.00 | 0.00 | 90 | 1007.2 |
| 20260905104031 | 59 | 180 | 0.0 | 0.0 | 0.00 | 0.00 | 0.00 | 95 | 1007.9 |
| 20260905103704 | 59 | 342 | 0.0 | 0.0 | 0.00 | 0.00 | 0.00 | 90 | 1007.2 |
| 20260905103526 | 59 | 118 | 0.0 | 0.0 | 0.00 | 0.00 | 0.00 | 95 | 1008.0 |
| 20260905103203 | 59 | 342 | 0.0 | 0.0 | 0.00 | 0.00 | 0.00 | 90 | 1007.2 |
| 20260905103023 | 59 | 118 | 0.0 | 0.0 | 0.00 | 0.00 | 0.00 | 95 | 1008.0 |
| 20260905102518 | 58 | 120 | 0.0 | 0.0 | 0.00 | 0.00 | 0.00 | 95 | 1007.8 |
| 20260905102204 | 59 | 342 | 0.0 | 0.0 | 0.00 | 0.00 | 0.00 | 90 | 1007.0 |
| 20260905102014 | 58 | 120 | 0.0 | 0.0 | 0.00 | 0.00 | 0.00 | 94 | 1007.7 |
| 20260905101703 | 59 | 342 | 0.0 | 0.0 | 0.00 | 0.00 | 0.00 | 90 | 1007.0 |
| 20260905101513 | 58 | 115 | 0.0 | 0.0 | 0.00 | 0.00 | 0.00 | 94 | 1007.7 |
| 20260905101203 | 59 | 342 | 0.0 | 0.0 | 0.00 | 0.00 | 0.00 | 89 | 1007.0 |
| 20260905101011 | 58 | 166 | 0.0 | 0.0 | 0.00 | 0.00 | 0.00 | 94 | 1007.7 |
| 20260905100703 | 59 | 342 | 0.0 | 0.0 | 0.00 | 0.00 | 0.00 | 89 | 1007.0 |
| 20260905100508 | 58 | 130 | 0.0 | 0.0 | 0.00 | 0.00 | 0.00 | 94 | 1007.9 |
| 20260905100204 | 59 | 342 | 0.0 | 0.0 | 0.00 | 0.00 | 0.00 | 89 | 1007.0 |
| 20260905100007 | 58 | 129 | 0.0 | 0.0 | 0.00 | 0.00 | 0.00 | 94 | 1007.8 |
| 20260905095703 | 60 | 342 | 0.0 | 0.0 | 0.00 | 0.00 | 0.00 | 89 | 1007.0 |
| 20260905095502 | 58 | 105 | 0.0 | 0.0 | 0.00 | 0.00 | 0.00 | 94 | 1007.7 |
| 20260905095203 | 60 | 342 | 0.0 | 0.0 | 0.00 | 0.00 | 0.00 | 89 | 1007.0 |
| 20260905094957 | 59 | 105 | 0.0 | 0.0 | 0.00 | 0.00 | 0.00 | 94 | 1007.6 |
| 20260905094703 | 60 | 342 | 0.0 | 0.0 | 0.00 | 0.00 | 0.00 | 89 | 1006.9 |
| 20260905094452 | 59 | 125 | 0.0 | 0.0 | 0.00 | 0.00 | 0.00 | 93 | 1007.6 |
| 20260905094204 | 60 | 342 | 0.0 | 0.0 | 0.00 | 0.00 | 0.00 | 89 | 1006.8 |
| 20260905093950 | 59 | 164 | 0.0 | 0.0 | 0.00 | 0.00 | 0.00 | 94 | 1007.6 |
| 20260905093703 | 60 | 342 | 0.0 | 0.0 | 0.00 | 0.00 | 0.00 | 89 | 1006.9 |
| 20260905093446 | 59 | 103 | 0.0 | 0.0 | 0.00 | 0.00 | 0.00 | 93 | 1007.5 |
| 20260905093203 | 60 | 342 | 0.0 | 0.0 | 0.00 | 0.00 | 0.00 | 89 | 1006.9 |
| 20260905092942 | 59 | 94 | 0.0 | 0.0 | 0.00 | 0.00 | 0.00 | 93 | 1007.6 |
| 20260905092437 | 59 | 122 | 0.0 | 0.0 | 0.00 | 0.00 | 0.00 | 93 | 1007.8 |
| 20260905092203 | 60 | 342 | 0.0 | 0.0 | 0.00 | 0.00 | 0.00 | 89 | 1006.8 |
| 20260905091932 | 59 | 133 | 0.0 | 0.0 | 0.00 | 0.00 | 0.00 | 93 | 1007.5 |
| 20260905091703 | 61 | 342 | 0.0 | 0.0 | 0.00 | 0.00 | 0.00 | 89 | 1006.7 |
| 20260905091432 | 59 | 109 | 0.0 | 0.0 | 0.00 | 0.00 | 0.00 | 92 | 1007.6 |
| 20260905091203 | 61 | 342 | 0.0 | 0.0 | 0.00 | 0.00 | 0.00 | 89 | 1006.7 |
| 20260905090932 | 60 | 109 | 0.0 | 0.0 | 0.00 | 0.00 | 0.00 | 92 | 1007.4 |
| 20260905090428 | 60 | 98 | 0.0 | 0.0 | 0.00 | 0.00 | 0.00 | 92 | 1007.6 |
| 20260905090203 | 61 | 342 | 0.0 | 0.0 | 0.00 | 0.00 | 0.00 | 88 | 1006.7 |
| 20260905085927 | 60 | 168 | 0.0 | 0.0 | 0.00 | 0.00 | 0.00 | 92 | 1007.4 |
| 20260905085703 | 61 | 342 | 0.0 | 0.0 | 0.00 | 0.00 | 0.00 | 88 | 1006.7 |
| 20260905085426 | 60 | 123 | 0.0 | 0.0 | 0.00 | 0.00 | 0.00 | 92 | 1007.4 |
| 20260905084922 | 60 | 115 | 0.0 | 0.0 | 0.00 | 0.00 | 0.00 | 91 | 1007.4 |
| 20260905084703 | 61 | 342 | 0.0 | 0.0 | 0.00 | 0.00 | 0.00 | 88 | 1006.6 |
| 20260905084421 | 60 | 109 | 0.0 | 0.0 | 0.00 | 0.00 | 0.00 | 91 | 1007.4 |
| 20260905084203 | 61 | 342 | 0.0 | 0.0 | 0.00 | 0.00 | 0.00 | 88 | 1006.5 |
| 20260905083916 | 60 | 129 | 0.0 | 0.0 | 0.00 | 0.00 | 0.00 | 91 | 1007.1 |
| 20260905083703 | 61 | 342 | 0.0 | 0.0 | 0.00 | 0.00 | 0.00 | 88 | 1006.6 |
| 20260905083412 | 60 | 116 | 0.0 | 0.0 | 0.00 | 0.00 | 0.00 | 91 | 1007.4 |
| 20260905083203 | 61 | 342 | 0.0 | 0.0 | 0.00 | 0.00 | 0.00 | 88 | 1006.5 |
| 20260905082908 | 60 | 116 | 0.0 | 0.0 | 0.00 | 0.00 | 0.00 | 90 | 1007.4 |
| 20260905082403 | 60 | 137 | 0.0 | 0.0 | 0.00 | 0.00 | 0.00 | 90 | 1007.4 |
| 20260905081858 | 61 | 114 | 0.0 | 0.0 | 0.00 | 0.00 | 0.00 | 89 | 1007.4 |
| 20260905081704 | 62 | 342 | 0.0 | 0.0 | 0.00 | 0.00 | 0.00 | 88 | 1006.5 |
| 20260905081359 | 61 | 111 | 0.0 | 0.0 | 0.00 | 0.00 | 0.00 | 89 | 1007.4 |
| 20260905080857 | 62 | 104 | 0.0 | 0.0 | 0.00 | 0.00 | 0.00 | 88 | 1007.2 |
| 20260905080352 | 62 | 93 | 0.0 | 0.0 | 0.00 | 0.00 | 0.00 | 88 | 1007.2 |
| 20260905080203 | 62 | 342 | 0.0 | 0.0 | 0.00 | 0.00 | 0.00 | 88 | 1006.5 |
| 20260905075851 | 62 | 103 | 0.0 | 0.0 | 0.00 | 0.00 | 0.00 | 88 | 1007.4 |
| 20260905075703 | 62 | 342 | 0.0 | 0.0 | 0.00 | 0.00 | 0.00 | 88 | 1006.5 |
| 20260905075345 | 61 | 99 | 1.0 | 2.0 | 0.00 | 0.00 | 0.00 | 89 | 1007.3 |
| 20260905075203 | 62 | 321 | 0.0 | 0.0 | 0.00 | 0.00 | 0.00 | 87 | 1006.5 |
| 20260905074844 | 61 | 121 | 0.0 | 0.0 | 0.00 | 0.00 | 0.00 | 89 | 1007.3 |
| 20260905074703 | 62 | 306 | 0.0 | 0.0 | 0.00 | 0.00 | 0.00 | 87 | 1006.5 |
| 20260905074341 | 61 | 113 | 0.0 | 0.0 | 0.00 | 0.00 | 0.00 | 89 | 1007.5 |
| 20260905074203 | 62 | 306 | 0.0 | 0.0 | 0.00 | 0.00 | 0.00 | 87 | 1006.6 |
| 20260905073836 | 61 | 126 | 0.0 | 0.0 | 0.00 | 0.00 | 0.00 | 88 | 1007.3 |
| 20260905073703 | 62 | 306 | 0.0 | 0.0 | 0.00 | 0.00 | 0.00 | 87 | 1006.7 |
| 20260905073331 | 62 | 115 | 0.0 | 0.0 | 0.00 | 0.00 | 0.00 | 87 | 1007.6 |
| 20260905073203 | 62 | 306 | 0.0 | 0.0 | 0.00 | 0.00 | 0.00 | 87 | 1006.7 |
| 20260905072825 | 62 | 109 | 0.0 | 0.0 | 0.00 | 0.00 | 0.00 | 87 | 1007.5 |
| 20260905072703 | 62 | 306 | 0.0 | 0.0 | 0.00 | 0.00 | 0.00 | 87 | 1006.7 |
| 20260905072320 | 62 | 119 | 0.0 | 0.0 | 0.00 | 0.00 | 0.00 | 86 | 1007.4 |
| 20260905072203 | 62 | 306 | 0.0 | 0.0 | 0.00 | 0.00 | 0.00 | 87 | 1006.7 |
| 20260905071817 | 62 | 114 | 0.0 | 0.0 | 0.00 | 0.00 | 0.00 | 85 | 1007.5 |
| 20260905071703 | 62 | 306 | 0.0 | 0.0 | 0.00 | 0.00 | 0.00 | 88 | 1006.7 |
| 20260905071313 | 63 | 126 | 0.0 | 0.0 | 0.00 | 0.00 | 0.00 | 85 | 1007.5 |
| 20260905071203 | 62 | 306 | 0.0 | 0.0 | 0.00 | 0.00 | 0.00 | 88 | 1006.7 |
| 20260905070808 | 63 | 99 | 0.0 | 0.0 | 0.00 | 0.00 | 0.00 | 84 | 1007.4 |
| 20260905070704 | 62 | 306 | 0.0 | 0.0 | 0.00 | 0.00 | 0.00 | 88 | 1006.8 |
| 20260905070304 | 63 | 119 | 0.0 | 0.0 | 0.00 | 0.00 | 0.00 | 84 | 1007.6 |
| 20260905070203 | 62 | 306 | 0.0 | 0.0 | 0.00 | 0.00 | 0.00 | 88 | 1006.9 |
| 20260905065802 | 63 | 71 | 0.0 | 1.0 | 0.00 | 0.00 | 0.00 | 85 | 1007.6 |
| 20260905065704 | 62 | 298 | 0.0 | 0.0 | 0.00 | 0.00 | 0.00 | 88 | 1006.9 |
| 20260905065256 | 62 | 112 | 0.0 | 1.0 | 0.00 | 0.00 | 0.00 | 87 | 1007.9 |
| 20260905065203 | 62 | 58 | 0.0 | 0.0 | 0.00 | 0.00 | 0.00 | 87 | 1007.0 |
| 20260905064752 | 61 | 119 | 0.0 | 0.0 | 0.00 | 0.00 | 0.00 | 89 | 1007.8 |
| 20260905064703 | 62 | 28 | 0.0 | 0.0 | 0.00 | 0.00 | 0.00 | 87 | 1006.9 |
| 20260905064247 | 60 | 312 | 0.0 | 2.0 | 0.00 | 0.00 | 0.00 | 90 | 1007.8 |
| 20260905064204 | 62 | 14 | 0.0 | 0.0 | 0.00 | 0.00 | 0.00 | 87 | 1006.9 |
| 20260905063745 | 60 | 117 | 0.0 | 0.0 | 0.00 | 0.00 | 0.00 | 90 | 1007.7 |
| 20260905063704 | 62 | 132 | 0.0 | 0.0 | 0.00 | 0.00 | 0.00 | 86 | 1006.9 |
| 20260905063242 | 60 | 129 | 0.0 | 0.0 | 0.00 | 0.00 | 0.00 | 90 | 1007.9 |
| 20260905063203 | 62 | 100 | 0.0 | 0.0 | 0.00 | 0.00 | 0.00 | 86 | 1006.9 |
| 20260905062737 | 61 | 167 | 0.0 | 0.0 | 0.00 | 0.00 | 0.00 | 89 | 1007.9 |
| 20260905062704 | 62 | 100 | 0.0 | 0.0 | 0.00 | 0.00 | 0.00 | 86 | 1007.0 |
| 20260905062231 | 61 | 265 | 0.0 | 0.0 | 0.00 | 0.00 | 0.00 | 89 | 1007.9 |
| 20260905062204 | 62 | 100 | 0.0 | 0.0 | 0.00 | 0.00 | 0.00 | 86 | 1007.0 |
| 20260905061725 | 61 | 117 | 0.0 | 0.0 | 0.00 | 0.00 | 0.00 | 88 | 1007.9 |
| 20260905061221 | 61 | 85 | 0.0 | 0.0 | 0.00 | 0.00 | 0.00 | 88 | 1008.0 |
| 20260905060720 | 61 | 129 | 0.0 | 0.0 | 0.00 | 0.00 | 0.00 | 87 | 1008.1 |
| 20260905060703 | 62 | 100 | 0.0 | 0.0 | 0.00 | 0.00 | 0.00 | 86 | 1007.1 |
| 20260905060217 | 62 | 133 | 0.0 | 0.0 | 0.00 | 0.00 | 0.00 | 87 | 1008.1 |
| 20260905060203 | 62 | 100 | 0.0 | 0.0 | 0.00 | 0.00 | 0.00 | 86 | 1007.3 |
| 20260905055715 | 62 | 125 | 0.0 | 0.0 | 0.00 | 0.00 | 0.00 | 86 | 1008.2 |
| 20260905055703 | 63 | 100 | 0.0 | 0.0 | 0.00 | 0.00 | 0.00 | 86 | 1007.3 |
| 20260905055211 | 62 | 110 | 0.0 | 0.0 | 0.00 | 0.00 | 0.00 | 86 | 1008.1 |
| 20260905055204 | 63 | 100 | 0.0 | 0.0 | 0.00 | 0.00 | 0.00 | 86 | 1007.2 |
| 20260905054706 | 62 | 120 | 0.0 | 0.0 | 0.00 | 0.00 | 0.00 | 86 | 1008.0 |
| 20260905054704 | 63 | 73 | 0.0 | 0.0 | 0.00 | 0.00 | 0.00 | 86 | 1007.1 |
| 20260905054204 | 63 | 215 | 0.0 | 0.0 | 0.00 | 0.00 | 0.00 | 86 | 1007.1 |
| 20260905054202 | 62 | 95 | 0.0 | 0.0 | 0.00 | 0.00 | 0.00 | 86 | 1008.0 |
| 20260905053656 | 62 | 114 | 0.0 | 0.0 | 0.00 | 0.00 | 0.00 | 86 | 1008.3 |
| 20260905053151 | 63 | 127 | 0.0 | 0.0 | 0.00 | 0.00 | 0.00 | 85 | 1007.8 |
| 20260905052703 | 63 | 232 | 0.0 | 0.0 | 0.00 | 0.00 | 0.00 | 86 | 1007.2 |
| 20260905052650 | 63 | 123 | 0.0 | 0.0 | 0.00 | 0.00 | 0.00 | 85 | 1007.8 |
| 20260905052203 | 63 | 232 | 0.0 | 0.0 | 0.00 | 0.00 | 0.00 | 85 | 1007.1 |
| 20260905052145 | 63 | 142 | 0.0 | 0.0 | 0.00 | 0.00 | 0.00 | 85 | 1008.0 |
| 20260905051703 | 63 | 232 | 0.0 | 0.0 | 0.00 | 0.00 | 0.00 | 85 | 1007.3 |
| 20260905051640 | 63 | 133 | 0.0 | 0.0 | 0.00 | 0.00 | 0.00 | 85 | 1008.0 |
| 20260905051137 | 63 | 165 | 0.0 | 0.0 | 0.00 | 0.00 | 0.00 | 85 | 1008.0 |
| 20260905050703 | 63 | 242 | 0.0 | 1.0 | 0.00 | 0.00 | 0.00 | 85 | 1007.2 |
| 20260905050633 | 63 | 148 | 0.0 | 0.0 | 0.00 | 0.00 | 0.00 | 85 | 1007.9 |
| 20260905050130 | 63 | 148 | 0.0 | 1.0 | 0.00 | 0.00 | 0.00 | 86 | 1008.1 |